Regional Weather Roundup
Issued by NWS

Home | Current Version | Previous Version | Graphics & Text | Print | Product List | Glossary Off
Versions: 1 2 3 4 5 6 7 8 9 10 11 12 13 14 15 16 17 18 19 20 21 22 23 24 25 26 27 28 29 30 31 32 33 34 35 36 37 38 39 40 41 42 43 44 45 46 47 48 49 50

512
ASUS43 KTOP 211608
RWRKS

WEATHER ROUNDUP FOR KANSAS
NATIONAL WEATHER SERVICE GOODLAND KS
1100 AM CDT THU SEP 21 2017

NOTE:  "FAIR" INDICATES FEW OR NO CLOUDS BELOW 12,000 FEET WITH NO
SIGNIFICANT WEATHER AND/OR OBSTRUCTIONS TO VISIBILITY.

KSZ001>006-013>018-027>032-041>047-211700-
NORTHWEST KANSAS

CITY           SKY/WX    TMP DP  RH WIND       PRES   REMARKS
GOODLAND       SUNNY     80  40  23 S12       29.77S
HAYS           SUNNY     81  66  60 S9        29.80F
HILL CITY      SUNNY     84  51  31 S14G22    29.78F
RUSSELL        SUNNY     83  68  60 S17       29.79F
$$

KSZ061>065-074>080-084>089-211700-
SOUTHWEST KANSAS

CITY           SKY/WX    TMP DP  RH WIND       PRES   REMARKS
DODGE CITY     SUNNY     81  57  43 S15G24    29.84S
ELKHART          N/A     81  48  31 S10         N/A
GARDEN CITY    SUNNY     79  48  33 S13       29.83R
GREAT BEND     SUNNY     83  67  58 S17G23    29.82S
LIBERAL        SUNNY     76  52  43 S15       29.86S
PRATT          SUNNY     82  66  57 S21       29.84S
$$

KSZ066>073-081>083-090>101-211700-
SOUTHEAST KANSAS

CITY           SKY/WX    TMP DP  RH WIND       PRES   REMARKS
CHANUTE        MOSUNNY   85  74  69 S14G22    29.93S
COFFEYVILLE    SUNNY     85  74  69 S17G24    29.92S
HUTCHINSON     SUNNY     86  71  60 S20G26    29.83F
MEDICINE LODGE   N/A     83  69  62 S13       29.83S
NEWTON         SUNNY     84  71  65 S23       29.86S
WICHITA INTL   MOSUNNY   85  72  65 S24       29.86R
WICHITA JABRA  SUNNY     85  72  65 S21G28    29.86S
WICHITA MCCONL SUNNY     86  69  57 S20G26    29.86S
WINFIELD       SUNNY     86  73  65 S18       29.89R
$$

KSZ007>012-019>026-033>040-048>060-102>105-211700-
NORTHEAST KANSAS

CITY           SKY/WX    TMP DP  RH WIND       PRES   REMARKS
CONCORDIA      SUNNY     81  73  76 S14G25    29.82S
EMPORIA        SUNNY     83  71  67 S20       29.89R
LAWRENCE       SUNNY     84  73  69 SE21      29.90F
MANHATTAN      SUNNY     87  72  60 S15G23    29.84S
MARYSVILLE     PTSUNNY   86  72  62 S14G21    29.85S
OLATHE IND     SUNNY     83  72  69 S14G23    29.94S
OLATHE EXE     MOSUNNY   81  73  76 S16G23    29.94S
SALINA         SUNNY     87  70  56 S15G25    29.82S
TOPEKA BILLARD SUNNY     85  74  69 S14       29.88F
TOPEKA FORBES  SUNNY     85  74  69 S14G23    29.89S
$$




USA.gov is the U.S. government's official web portal to all federal, state and local government web resources and services.